N3368K ENBO-ENBN

Flight info

Callsign N3368K
Flight time 0h 59m
Altitude 8000
Route DISMU Z200 BNN
Aircraft BE36/L-BDFGLORY/S

Departure

Time 2026-05-05 12:57
Airport Bodø Airport (ENBO)

Arrival

Time 2026-05-05 13:57
Airport Brønnøysund Airport, Brønnøy (ENBN)
Time Latitude Longitude Altitude Speed Heading
2026-05-05 12:47 67.27218 14.36108 36 ft 0 kts 356°
2026-05-05 12:53 67.27221 14.36109 36 ft 4 kts
2026-05-05 12:53 67.27205 14.36205 37 ft 13 kts 181°
2026-05-05 12:53 67.27093 14.36176 36 ft 17 kts 191°
2026-05-05 12:54 67.27060 14.36651 38 ft 24 kts 83°
2026-05-05 12:54 67.27091 14.37052 39 ft 22 kts 77°
2026-05-05 12:54 67.27121 14.37421 41 ft 20 kts 76°
2026-05-05 12:55 67.27151 14.37782 42 ft 21 kts 79°
2026-05-05 12:55 67.27161 14.38138 44 ft 18 kts 91°
2026-05-05 12:55 67.27160 14.38216 44 ft 0 kts 91°
2026-05-05 12:55 67.27160 14.38262 44 ft 10 kts 95°
2026-05-05 12:56 67.27099 14.38380 43 ft 14 kts 200°
2026-05-05 12:56 67.27069 14.38276 44 ft 0 kts 252°
2026-05-05 12:56 67.27021 14.37803 43 ft 66 kts 259°
2026-05-05 12:57 67.26877 14.36209 117 ft 110 kts 252°
2026-05-05 12:57 67.26692 14.34289 598 ft 107 kts 254°
2026-05-05 12:57 67.26607 14.32383 1086 ft 108 kts 257°
2026-05-05 12:57 67.26498 14.30442 1565 ft 108 kts 255°
2026-05-05 12:58 67.26377 14.28525 2021 ft 110 kts 255°
2026-05-05 12:58 67.26084 14.26769 2468 ft 106 kts 226°
2026-05-05 12:58 67.25525 14.25545 2911 ft 105 kts 220°
2026-05-05 12:58 67.24957 14.24338 3316 ft 106 kts 220°
2026-05-05 12:59 67.24383 14.23135 3723 ft 106 kts 220°
2026-05-05 12:59 67.23807 14.21940 4127 ft 106 kts 221°
2026-05-05 12:59 67.23231 14.20742 4520 ft 106 kts 220°
2026-05-05 13:00 67.22066 14.18294 5156 ft 113 kts 223°
2026-05-05 13:00 67.21437 14.17025 5479 ft 115 kts 220°
2026-05-05 13:01 67.19522 14.13124 6481 ft 112 kts 223°
2026-05-05 13:01 67.18914 14.11820 6755 ft 115 kts 223°
2026-05-05 13:01 67.18292 14.10530 7018 ft 118 kts 222°
2026-05-05 13:01 67.17629 14.09140 7247 ft 122 kts 220°
2026-05-05 13:02 67.16979 14.07843 7570 ft 120 kts 221°
2026-05-05 13:02 67.16306 14.06446 7767 ft 128 kts 221°
2026-05-05 13:02 67.15594 14.04981 7964 ft 131 kts 219°
2026-05-05 13:02 67.14854 14.03473 8012 ft 144 kts 220°
2026-05-05 13:03 67.14043 14.01798 8020 ft 153 kts 220°
2026-05-05 13:03 67.13186 14.00036 8019 ft 158 kts 219°
2026-05-05 13:03 67.12315 13.98250 8019 ft 161 kts 220°
2026-05-05 13:03 67.11443 13.96469 8018 ft 163 kts 219°
2026-05-05 13:04 67.10440 13.95118 8019 ft 165 kts 199°
2026-05-05 13:04 67.09329 13.94365 8020 ft 165 kts 198°
2026-05-05 13:04 67.08228 13.93588 8017 ft 164 kts 197°
2026-05-05 13:04 67.07127 13.92824 8017 ft 163 kts 197°
2026-05-05 13:05 67.06028 13.92056 8018 ft 163 kts 197°
2026-05-05 13:05 67.04932 13.91294 8018 ft 163 kts 198°
2026-05-05 13:05 67.03845 13.90535 8017 ft 162 kts 198°
2026-05-05 13:05 67.02758 13.89782 8019 ft 161 kts 198°
2026-05-05 13:06 67.01679 13.89030 8013 ft 162 kts 197°
2026-05-05 13:06 67.00591 13.88279 8015 ft 161 kts 198°
2026-05-05 13:06 66.99511 13.87530 8016 ft 161 kts 197°
2026-05-05 13:06 66.98422 13.86773 8013 ft 163 kts 197°
2026-05-05 13:07 66.97322 13.86017 8011 ft 163 kts 197°
2026-05-05 13:07 66.96229 13.85260 8018 ft 164 kts 197°
2026-05-05 13:07 66.95122 13.84493 8014 ft 165 kts 197°
2026-05-05 13:07 66.94014 13.83731 8018 ft 164 kts 198°
2026-05-05 13:08 66.92912 13.82969 8022 ft 164 kts 198°
2026-05-05 13:08 66.91813 13.82214 8025 ft 164 kts 198°
2026-05-05 13:08 66.90709 13.81452 8022 ft 164 kts 198°
2026-05-05 13:08 66.89638 13.80565 8027 ft 160 kts 207°
2026-05-05 13:09 66.88611 13.79464 8025 ft 161 kts 206°
2026-05-05 13:09 66.87576 13.78386 8019 ft 162 kts 205°
2026-05-05 13:09 66.86534 13.77311 8019 ft 161 kts 205°
2026-05-05 13:09 66.85506 13.76245 8023 ft 160 kts 206°
2026-05-05 13:10 66.84461 13.75155 8027 ft 160 kts 206°
2026-05-05 13:10 66.83434 13.74082 8024 ft 159 kts 206°
2026-05-05 13:10 66.82428 13.73038 8023 ft 158 kts 206°
2026-05-05 13:10 66.81413 13.71986 8026 ft 158 kts 205°
2026-05-05 13:11 66.80391 13.70927 8021 ft 158 kts 206°
2026-05-05 13:11 66.79380 13.69870 8018 ft 155 kts 207°
2026-05-05 13:11 66.78387 13.68847 8031 ft 155 kts 206°
2026-05-05 13:11 66.77371 13.67800 8024 ft 160 kts 205°
2026-05-05 13:12 66.76337 13.66736 8025 ft 160 kts 205°
2026-05-05 13:12 66.75305 13.65675 8028 ft 159 kts 206°
2026-05-05 13:12 66.74285 13.64611 8030 ft 158 kts 206°
2026-05-05 13:12 66.73267 13.63556 8023 ft 157 kts 206°
2026-05-05 13:13 66.72252 13.62516 8025 ft 158 kts 205°
2026-05-05 13:13 66.71226 13.61474 8024 ft 159 kts 205°
2026-05-05 13:13 66.70201 13.60417 8024 ft 159 kts 205°
2026-05-05 13:13 66.69168 13.59380 8027 ft 159 kts 200°
2026-05-05 13:14 66.68081 13.59078 8032 ft 162 kts 180°
2026-05-05 13:14 66.66969 13.59824 8021 ft 169 kts 158°
2026-05-05 13:14 66.66013 13.61613 8023 ft 174 kts 142°
2026-05-05 13:14 66.65114 13.63737 8029 ft 176 kts 143°
2026-05-05 13:15 66.64225 13.65795 8029 ft 177 kts 142°
2026-05-05 13:15 66.63325 13.67902 8027 ft 176 kts 143°
2026-05-05 13:15 66.62427 13.69997 8027 ft 176 kts 142°
2026-05-05 13:15 66.61520 13.72101 8018 ft 179 kts 143°
2026-05-05 13:16 66.60597 13.74241 8026 ft 181 kts 142°
2026-05-05 13:16 66.59677 13.76383 8023 ft 180 kts 142°
2026-05-05 13:16 66.58758 13.78517 8023 ft 179 kts 142°
2026-05-05 13:16 66.57843 13.80640 8021 ft 178 kts 142°
2026-05-05 13:17 66.56934 13.82736 8029 ft 177 kts 142°
2026-05-05 13:17 66.56024 13.84839 8025 ft 177 kts 142°
2026-05-05 13:17 66.55125 13.86919 8028 ft 175 kts 143°
2026-05-05 13:17 66.54223 13.88966 8039 ft 175 kts 147°
2026-05-05 13:18 66.53151 13.90248 8052 ft 170 kts 172°
2026-05-05 13:18 66.52002 13.90421 8053 ft 162 kts 193°
2026-05-05 13:18 66.50908 13.89795 8053 ft 162 kts 199°
2026-05-05 13:18 66.49803 13.89147 8052 ft 164 kts 198°
2026-05-05 13:19 66.48682 13.88484 8051 ft 166 kts 199°
2026-05-05 13:19 66.47564 13.87816 8051 ft 166 kts 198°
2026-05-05 13:19 66.46445 13.87153 8053 ft 165 kts 199°
2026-05-05 13:19 66.45330 13.86492 8051 ft 165 kts 199°
2026-05-05 13:20 66.44214 13.85829 8052 ft 165 kts 199°
2026-05-05 13:20 66.43099 13.85167 8047 ft 165 kts 198°
2026-05-05 13:20 66.41990 13.84510 8049 ft 163 kts 199°
2026-05-05 13:20 66.40878 13.83850 8058 ft 165 kts 198°
2026-05-05 13:21 66.39761 13.83189 8053 ft 165 kts 198°
2026-05-05 13:21 66.38643 13.82530 8052 ft 165 kts 198°
2026-05-05 13:21 66.37527 13.81871 8049 ft 164 kts 198°
2026-05-05 13:21 66.36433 13.81226 8051 ft 163 kts 198°
2026-05-05 13:22 66.35327 13.80573 8052 ft 163 kts 198°
2026-05-05 13:22 66.34214 13.79917 8050 ft 164 kts 198°
2026-05-05 13:22 66.33106 13.79267 8049 ft 163 kts 199°
2026-05-05 13:22 66.32002 13.78618 8049 ft 163 kts 198°
2026-05-05 13:23 66.30896 13.77968 8050 ft 163 kts 199°
2026-05-05 13:23 66.29793 13.77317 8047 ft 163 kts 199°
2026-05-05 13:23 66.28761 13.76303 8053 ft 159 kts 217°
2026-05-05 13:23 66.27885 13.74636 8047 ft 157 kts 223°
2026-05-05 13:24 66.27022 13.72972 8051 ft 158 kts 222°
2026-05-05 13:24 66.26173 13.71337 8052 ft 155 kts 223°
2026-05-05 13:24 66.25317 13.69672 8051 ft 154 kts 223°
2026-05-05 13:24 66.24485 13.68056 8051 ft 154 kts 223°
2026-05-05 13:25 66.23638 13.66417 8047 ft 155 kts 223°
2026-05-05 13:25 66.22787 13.64772 8046 ft 155 kts 223°
2026-05-05 13:25 66.21939 13.63133 8048 ft 155 kts 222°
2026-05-05 13:25 66.21083 13.61479 8047 ft 156 kts 222°
2026-05-05 13:26 66.20225 13.59826 8048 ft 156 kts 223°
2026-05-05 13:26 66.19650 13.58715 8048 ft 156 kts 223°
2026-05-05 13:26 66.18810 13.57095 8056 ft 156 kts 222°
2026-05-05 13:26 66.17946 13.55435 8056 ft 157 kts 223°
2026-05-05 13:27 66.17078 13.53766 8065 ft 158 kts 223°
2026-05-05 13:27 66.16212 13.52103 8055 ft 157 kts 222°
2026-05-05 13:27 66.15353 13.50455 8057 ft 156 kts 222°
2026-05-05 13:27 66.14495 13.48809 8054 ft 156 kts 222°
2026-05-05 13:28 66.13639 13.47171 8055 ft 154 kts 223°
2026-05-05 13:28 66.12792 13.45553 8065 ft 155 kts 223°
2026-05-05 13:28 66.11944 13.43919 8056 ft 154 kts 223°
2026-05-05 13:28 66.11095 13.42316 8059 ft 154 kts 222°
2026-05-05 13:29 66.10247 13.40684 8056 ft 155 kts 222°
2026-05-05 13:29 66.09391 13.39051 8052 ft 155 kts 223°
2026-05-05 13:29 66.08550 13.37449 8062 ft 152 kts 223°
2026-05-05 13:29 66.07711 13.35851 8061 ft 152 kts 223°
2026-05-05 13:30 66.06873 13.34256 8062 ft 152 kts 223°
2026-05-05 13:30 66.06038 13.32667 8067 ft 153 kts 222°
2026-05-05 13:30 66.05194 13.31066 8074 ft 153 kts 222°
2026-05-05 13:30 66.04348 13.29457 8071 ft 154 kts 223°
2026-05-05 13:31 66.03501 13.27856 8075 ft 154 kts 223°
2026-05-05 13:31 66.02658 13.26256 8076 ft 153 kts 223°
2026-05-05 13:31 66.01829 13.24687 8075 ft 151 kts 223°
2026-05-05 13:31 66.00993 13.23104 8074 ft 153 kts 222°
2026-05-05 13:32 66.00167 13.21530 8062 ft 153 kts 223°
2026-05-05 13:32 65.99298 13.19909 8075 ft 155 kts 223°
2026-05-05 13:32 65.98441 13.18294 8074 ft 155 kts 223°
2026-05-05 13:32 65.97585 13.16676 8077 ft 156 kts 223°
2026-05-05 13:33 65.96722 13.15048 8083 ft 157 kts 223°
2026-05-05 13:33 65.95857 13.13417 8077 ft 156 kts 223°
2026-05-05 13:33 65.94995 13.11803 8052 ft 154 kts 223°
2026-05-05 13:33 65.94163 13.10279 8079 ft 145 kts 221°
2026-05-05 13:34 65.93357 13.08781 8093 ft 150 kts 225°
2026-05-05 13:34 65.92530 13.07148 8090 ft 155 kts 224°
2026-05-05 13:34 65.91669 13.05537 8089 ft 157 kts 223°
2026-05-05 13:34 65.90802 13.03929 8087 ft 155 kts 223°
2026-05-05 13:35 65.89947 13.02339 8085 ft 154 kts 223°
2026-05-05 13:35 65.89105 13.00761 8089 ft 155 kts 223°
2026-05-05 13:35 65.88231 12.99129 8091 ft 157 kts 223°
2026-05-05 13:35 65.87355 12.97496 8091 ft 159 kts 222°
2026-05-05 13:36 65.86472 12.95850 8090 ft 160 kts 223°
2026-05-05 13:36 65.85582 12.94192 8093 ft 161 kts 223°
2026-05-05 13:36 65.84686 12.92526 8093 ft 163 kts 222°
2026-05-05 13:36 65.83797 12.90870 8084 ft 162 kts 222°
2026-05-05 13:37 65.82907 12.89221 8086 ft 159 kts 222°
2026-05-05 13:37 65.82027 12.87592 8088 ft 159 kts 222°
2026-05-05 13:37 65.81138 12.85938 8102 ft 159 kts 223°
2026-05-05 13:37 65.80267 12.84325 8087 ft 158 kts 223°
2026-05-05 13:38 65.79399 12.82722 8088 ft 155 kts 223°
2026-05-05 13:38 65.78549 12.81148 8089 ft 155 kts 222°
2026-05-05 13:38 65.77668 12.79521 8087 ft 155 kts 222°
2026-05-05 13:38 65.76818 12.77952 8092 ft 155 kts 223°
2026-05-05 13:39 65.75956 12.76361 8092 ft 156 kts 223°
2026-05-05 13:39 65.75087 12.74758 8091 ft 156 kts 223°
2026-05-05 13:39 65.74221 12.73167 8105 ft 156 kts 222°
2026-05-05 13:39 65.73347 12.71551 8092 ft 157 kts 223°
2026-05-05 13:40 65.72472 12.69946 8093 ft 158 kts 222°
2026-05-05 13:40 65.71588 12.68327 8093 ft 160 kts 222°
2026-05-05 13:40 65.70692 12.66682 8086 ft 162 kts 223°
2026-05-05 13:40 65.69798 12.65055 8099 ft 161 kts 223°
2026-05-05 13:41 65.68902 12.63400 8099 ft 162 kts 222°
2026-05-05 13:41 65.68002 12.61753 8100 ft 161 kts 222°
2026-05-05 13:41 65.67115 12.60133 8108 ft 158 kts 222°
2026-05-05 13:41 65.66239 12.58538 8110 ft 158 kts 222°
2026-05-05 13:42 65.65358 12.56928 8110 ft 159 kts 222°
2026-05-05 13:42 65.64474 12.55310 8112 ft 159 kts 222°
2026-05-05 13:42 65.63583 12.53688 8107 ft 160 kts 223°
2026-05-05 13:42 65.62691 12.52042 8109 ft 162 kts 222°
2026-05-05 13:43 65.61796 12.50451 8109 ft 161 kts 222°
2026-05-05 13:43 65.60903 12.48826 8112 ft 161 kts 223°
2026-05-05 13:43 65.60008 12.47194 8111 ft 161 kts 223°
2026-05-05 13:43 65.59114 12.45569 8106 ft 161 kts 223°
2026-05-05 13:44 65.58217 12.43948 8114 ft 162 kts 223°
2026-05-05 13:44 65.57313 12.42304 8112 ft 163 kts 222°
2026-05-05 13:44 65.56397 12.40652 8109 ft 165 kts 222°
2026-05-05 13:44 65.55473 12.38978 8115 ft 167 kts 222°
2026-05-05 13:45 65.54551 12.37309 8110 ft 165 kts 222°
2026-05-05 13:45 65.53634 12.35662 8108 ft 163 kts 222°
2026-05-05 13:45 65.52728 12.34030 8107 ft 162 kts 222°
2026-05-05 13:45 65.51823 12.32397 8063 ft 164 kts 222°
2026-05-05 13:46 65.50903 12.30744 7983 ft 166 kts 223°
2026-05-05 13:46 65.49976 12.29066 7782 ft 166 kts 222°
2026-05-05 13:46 65.49046 12.27402 7554 ft 166 kts 222°
2026-05-05 13:46 65.48124 12.25750 7340 ft 165 kts 222°
2026-05-05 13:47 65.47198 12.24089 7117 ft 166 kts 222°
2026-05-05 13:47 65.46277 12.22429 6899 ft 165 kts 224°
2026-05-05 13:47 65.45548 12.20412 6686 ft 156 kts 243°
2026-05-05 13:47 65.45088 12.18093 6497 ft 153 kts 250°
2026-05-05 13:48 65.44651 12.15783 6297 ft 151 kts 249°
2026-05-05 13:48 65.44220 12.13499 6088 ft 149 kts 250°
2026-05-05 13:48 65.43790 12.11236 5891 ft 148 kts 250°
2026-05-05 13:48 65.43369 12.09010 5711 ft 148 kts 250°
2026-05-05 13:49 65.42937 12.06727 5510 ft 149 kts 250°
2026-05-05 13:49 65.42509 12.04462 5308 ft 149 kts 250°
2026-05-05 13:49 65.42083 12.02220 5108 ft 149 kts 250°
2026-05-05 13:49 65.41654 11.99958 4905 ft 149 kts 250°
2026-05-05 13:50 65.41218 11.97667 4707 ft 149 kts 250°
2026-05-05 13:50 65.40787 11.95401 4518 ft 149 kts 250°
2026-05-05 13:50 65.40347 11.93123 4316 ft 150 kts 247°
2026-05-05 13:50 65.39726 11.91132 4127 ft 152 kts 230°
2026-05-05 13:51 65.38861 11.89704 3925 ft 152 kts 213°
2026-05-05 13:51 65.37844 11.89003 3729 ft 154 kts 195°
2026-05-05 13:51 65.36754 11.89134 3523 ft 160 kts 175°
2026-05-05 13:51 65.35705 11.90172 3308 ft 168 kts 154°
2026-05-05 13:52 65.34838 11.92096 3084 ft 174 kts 130°
2026-05-05 13:52 65.34203 11.94583 2848 ft 176 kts 118°
2026-05-05 13:52 65.33961 11.97453 2614 ft 178 kts 89°
2026-05-05 13:52 65.34237 12.00307 2370 ft 170 kts 61°
2026-05-05 13:53 65.34875 12.02394 2130 ft 145 kts 36°
2026-05-05 13:53 65.35648 12.03745 1926 ft 131 kts 25°
2026-05-05 13:53 65.36355 12.04932 1916 ft 120 kts 26°
2026-05-05 13:53 65.37043 12.06077 1918 ft 120 kts 26°
2026-05-05 13:54 65.37727 12.07225 1914 ft 120 kts 25°
2026-05-05 13:54 65.38423 12.08397 1812 ft 124 kts 26°
2026-05-05 13:54 65.39147 12.09610 1643 ft 129 kts 26°
2026-05-05 13:54 65.39883 12.10856 1466 ft 131 kts 27°
2026-05-05 13:55 65.40638 12.12120 1271 ft 131 kts 28°
2026-05-05 13:55 65.41377 12.13367 1079 ft 131 kts 27°
2026-05-05 13:55 65.42117 12.14615 893 ft 123 kts 30°
2026-05-05 13:55 65.42758 12.15705 726 ft 105 kts 26°
2026-05-05 13:56 65.43328 12.16653 582 ft 97 kts 28°
2026-05-05 13:56 65.43877 12.17570 453 ft 96 kts 24°
2026-05-05 13:56 65.44441 12.18449 338 ft 97 kts 21°
2026-05-05 13:56 65.44965 12.19560 208 ft 103 kts 34°
2026-05-05 13:57 65.45518 12.20598 53 ft 100 kts 34°
2026-05-05 13:57 65.45942 12.21425 22 ft 35 kts 39°
2026-05-05 13:57 65.45979 12.21493 23 ft 3 kts 15°
2026-05-05 13:57 65.46015 12.21394 25 ft 11 kts 310°
2026-05-05 13:58 65.46079 12.21257 22 ft 12 kts 358°
2026-05-05 13:58 65.46094 12.21270 23 ft 0 kts 43°